Location: Lussas
(44.6119°N, 4.4726°E)
Time: 13:23:45
(UTC+00:00)

deb Chang Zheng 4 - Pass Details

Date: 26 November 2020
Orbit: 601 x 623 km, 98.6° (Epoch: 26 January)

Event Time Altitude Azimuth Distance (km) Brightness Sun altitude
Rises 04:40:00 0° 14° (NNE) 2,907 7.1 -23.2°
Reaches altitude 10° 04:42:11 10° 14° (NNE) 1,999 6.2 -22.8°
Maximum altitude 04:46:33 89° 102° (ESE) 630 3.5 -22.1°
Drops below altitude 10° 04:50:53 10° 195° (SSW) 1,992 6.1 -21.3°
Sets 04:53:04 0° 195° (SSW) 2,895 6.9 -20.9°
